Content
SEND FEEDBACK

Daily
Averages
Monthly
Summary
United States of America

PACIFIC GROVE, CALIFORNIA


Home > North America > United States > California
Elevation: 331 feet     Latitude: 36 36N     Longitude: 121 55W

WEATHER
 
SELECT A DAY
Number of Records: 197,340;   Date Range: 7/1/96 - 12/27/14
 
SHARE

PRINT THIS DATA

[ ← Previous Day ]
WEATHER ALMANAC - MARCH 29, 2014
[ Next Day → ]
[ °C ]   °F
Weather ElementAverageHighLow
Temperature57.7 °F66.9 °F (1:54 pm)50 °F (6:54 am)
Dewpoint50.2 °F55.4 °F (3:15 pm)44.1 °F (1:54 am)
Humidity77 %89 % (5:54 pm)57 % (1:54 pm)
Barometer30.11 in30.20 in (1:54 am)30.03 in (5:39 pm)
Wind Speed7.6 mph17.3 mph (2:54 pm)
Wind Gust23 mph (2:54 pm)
Weather ElementAverage
Visibility8 mi
Wind DirectionSSE (160.3 °)

Weather ElementTotal
Precipitation0.70 in
Heating Degree Days6.6 (Base 65)
Growing Degree Days8.5 (Base 50)
Averaged from 32 records on March 29, 2014
WEATHER CONDITIONS BREAKOUT
WIND DIRECTION BREAKOUT
WEATHER BY HOUR - MARCH 29, 2014
[ °C ]   °F
Local TimeTemperatureDewpointHumidityBarometerVisibilityWind DirectionWind SpeedGust SpeedPrecipitationEventsConditions
1:54 AM52.0 °F44.1 °F74 %30.20 in10.0 miESE (110°)3.5 mphClear
2:54 AM52.0 °F45.0 °F77 %30.19 in10.0 miEast (100°)5.8 mphClear
3:54 AM51.1 °F45.0 °F80 %30.18 in10.0 miEast (90°)3.5 mphClear
4:54 AM52.0 °F45.0 °F77 %30.17 in10.0 miEast (80°)5.8 mphOvercast
5:54 AM54.0 °F45.0 °F72 %30.16 in10.0 miESE (120°)8.1 mphClear
6:54 AM50.0 °F44.1 °F80 %30.16 in10.0 miENE (70°)4.6 mphPartly Cloudy
7:54 AM53.1 °F45.0 °F74 %30.16 in10.0 miEast (90°)6.9 mphOvercast
8:54 AM57.9 °F48.0 °F70 %30.16 in10.0 miEast (100°)3.5 mphOvercast
9:54 AM62.1 °F50.0 °F65 %30.15 in10.0 miSouth (170°)6.9 mphMostly Cloudy
10:54 AM64.0 °F50.0 °F60 %30.15 in10.0 miVariable5.8 mph16.1 mphOvercast
11:54 AM66.0 °F51.1 °F59 %30.15 in10.0 miSouth (190°)9.2 mph0.00 inOvercast
12:51 PM66.2 °F51.8 °F60 %30.09 in10.0 miSSE (160°)8.1 mphMostly Cloudy
12:54 PM66.0 °F51.1 °F59 %30.13 in10.0 miSSE (150°)12.7 mph16.1 mphMostly Cloudy
1:02 PM66.2 °F51.8 °F60 %30.08 in10.0 miSouth (170°)9.2 mphMostly Cloudy
1:54 PM66.9 °F51.1 °F57 %30.11 in10.0 miSouth (190°)12.7 mph20.7 mphOvercast
2:54 PM63.0 °F53.1 °F70 %30.09 in8.0 miSW (220°)17.3 mph23.0 mphOvercast
3:15 PM60.8 °F55.4 °F82 %30.07 in1.8 miSSW (200°)10.4 mph17.3 mph0.02 inRainLight Rain
3:38 PM59.0 °F55.4 °F88 %30.06 in2.0 miSW (220°)9.2 mph0.07 inRainRain
3:43 PM60.8 °F55.4 °F82 %30.06 in3.0 miSSW (210°)9.2 mph0.07 inRainLight Rain
3:52 PM59.0 °F55.4 °F88 %30.06 in5.0 miSouth (190°)9.2 mph0.07 inRainLight Rain
3:54 PM59.0 °F55.0 °F87 %30.09 in5.0 miSSW (200°)11.5 mph17.3 mph0.08 inRainLight Rain
4:54 PM59.0 °F54.0 °F83 %30.07 in10.0 miSSW (210°)6.9 mph0.00 inOvercast
5:39 PM57.2 °F53.6 °F88 %30.03 in8.0 miSSW (210°)6.9 mph0.00 inRainLight Rain
5:54 PM57.0 °F54.0 °F89 %30.08 in4.0 miWSW (240°)10.4 mph0.01 inRainLight Rain
6:36 PM55.4 °F51.8 °F88 %30.04 in8.0 miWSW (250°)8.1 mph0.02 inRainLight Rain
6:54 PM55.9 °F52.0 °F87 %30.08 in6.0 miWest (260°)5.8 mph0.05 inRainLight Rain
7:54 PM54.0 °F50.0 °F86 %30.07 in9.0 miCalm0.05 inRainLight Rain
8:54 PM54.0 °F48.9 °F83 %30.09 in7.0 miSSW (200°)3.5 mph0.07 inRainRain
9:54 PM53.1 °F48.9 °F86 %30.08 in10.0 miSE (130°)5.8 mph0.07 inRainLight Rain
10:54 PM53.1 °F48.9 °F86 %30.10 in10.0 miSouth (190°)5.8 mph0.00 inOvercast
11:43 PM53.6 °F48.2 °F82 %30.06 in3.0 miSouth (190°)6.9 mph0.05 inRainRain
11:54 PM53.1 °F48.9 °F86 %30.10 in5.0 miSW (220°)10.4 mph0.07 inRainLight Rain
Hourly data recorded from KMRY, located miles away from Pacific Grove, California







STORIES FROM OUR PARTNERS